This is the latest recevied weather packets stored in our database for station/object N3MFL. If no packets are shown the sender has not sent any weather packets the latest 10 day(s).
| Time | Temp. | Humidity | Pressure | Rain* | Wind** | Luminosity | Snow |
|---|---|---|---|---|---|---|---|
| 1777634065 | 9.44° C | 75% | 1010.8 hPa | 0 mm | - | 57 W/m² | - |
| 1777633761 | 9.44° C | 74% | 1010.7 hPa | 0 mm | - | 64 W/m² | - |
| 1777633460 | 9.44° C | 75% | 1010.7 hPa | 0 mm | - | 53 W/m² | - |
| 1777633157 | 8.89° C | 76% | 1010.7 hPa | 0 mm | - | 56 W/m² | - |
| 1777632549 | 8.89° C | 79% | 1010.6 hPa | 0 mm | - | 45 W/m² | - |
| 1777631944 | 8.89° C | 80% | 1010.3 hPa | 0 mm | - | 36 W/m² | - |
| 1777631642 | 8.89° C | 80% | 1010.4 hPa | 0 mm | - | 29 W/m² | - |
| 1777631339 | 8.89° C | 80% | 1010.4 hPa | 0 mm | - | 23 W/m² | - |
| 1777631035 | 8.89° C | 81% | 1010.3 hPa | 0 mm | - | 18 W/m² | - |
| 1777630732 | 8.89° C | 82% | 1010.5 hPa | 0 mm | - | 14 W/m² | - |
| 1777630429 | 8.89° C | 84% | 1010.1 hPa | 0 mm | - | 12 W/m² | - |
| 1777630127 | 8.89° C | 84% | 1010.3 hPa | 0 mm | - | 10 W/m² | - |
| 1777629824 | 8.89° C | 84% | 1010.1 hPa | 0 mm | - | 7 W/m² | - |
| 1777629521 | 8.89° C | 85% | 1010.1 hPa | 0 mm | - | 6 W/m² | - |
| 1777629217 | 8.89° C | 85% | 1010.1 hPa | 0 mm | - | 4 W/m² | - |
| 1777628913 | 8.89° C | 85% | 1010 hPa | 0 mm | - | 3 W/m² | - |
| 1777628610 | 8.89° C | 86% | 1010 hPa | 0 mm | - | 2 W/m² | - |
| 1777628306 | 8.89° C | 85% | 1009.8 hPa | 0 mm | - | 1 W/m² | - |
| 1777628003 | 8.89° C | 86% | 1009.9 hPa | 0 mm | - | 1 W/m² | - |
| 1777627701 | 8.89° C | 85% | 1009.9 hPa | 0 mm | - | 0 W/m² | - |
| 1777627400 | 8.89° C | 86% | 1009.7 hPa | 0 mm | - | 0 W/m² | - |
| 1777627098 | 8.89° C | 86% | 1009.8 hPa | 0 mm | - | 0 W/m² | - |
| 1777626794 | 8.89° C | 86% | 1009.7 hPa | 0 mm | - | 0 W/m² | - |
| 1777626490 | 8.89° C | 85% | 1009.6 hPa | 0 mm | - | 0 W/m² | - |
| 1777626185 | 8.89° C | 85% | 1009.7 hPa | 0 mm | - | 0 W/m² | - |
* Rain latest hour (hover to see other rain measurements)
** Current wind speed in m/s (hover to see current wind gust speed)